Change the Weather History Date:

Tuesday, August 26, 2014

  Actual Average Record
Temperature  
Mean Temperature 77 °F -  
Max Temperature 87 °F 89 °F 100 °F (2002)
Min Temperature 67 °F 66 °F 55 °F (2010)
Cooling Degree Days 12    
Growing Degree Days 27 (Base 50)    
Moisture  
Dew Point 56 °F    
Average Humidity 50    
Maximum Humidity 68    
Minimum Humidity 28    
Precipitation  
Precipitation 0.00 in - - ()
Sea Level Pressure  
Sea Level Pressure 30.16 in    
Wind  
Wind Speed 4 mph (South)    
Max Wind Speed 22 mph    
Max Gust Speed 26 mph    
Visibility 10 miles    
Events Thunderstorm    
Averages and records for this station are not official NWS values.
T = Trace of Precipitation, MM = Missing Value Source: NWS Daily Summary

Daily Weather History Graph

Daily Weather History Graph

Search for Another Location

Airport or City:

Trip Planner

Search our weather history database for the weather conditions in past years. The results will help you decide how hot, cold, wet, or windy it might be!

Date:

Astronomy

Aug. 26, 2014 Rise Set
Actual Time 6:38 AM MDT 7:39 PM MDT
Civil Twilight 6:13 AM MDT 8:04 PM MDT
Nautical Twilight 5:43 AM MDT 8:34 PM MDT
Astronomical Twilight 5:12 AM MDT 9:05 PM MDT
Moon 7:35 AM MDT (8/26) 8:09 PM MDT (8/26)
Length of Visible Light 13h 50m
Length of Day
13h 00m
New Moon, 1% of the Moon is Illuminated
Aug 26
New Moon
Sep 2
First Quarter
Sep 8
Full
Sep 15
Last Quarter
Sep 24
New

Hourly Weather History & Observations

Time (MDT) Temp. Heat Index Dew Point Humidity Pressure Visibility Wind Dir Wind Speed Gust Speed Precip Events Conditions
12:15 AM 73.9 °F - 56.7 °F 55% 30.14 in 10.0 mi Calm Calm - N/A   Clear
12:35 AM 73.4 °F - 56.7 °F 56% 30.14 in 10.0 mi South 3.5 mph - N/A   Clear
12:55 AM 73.2 °F - 56.7 °F 56% 30.15 in 10.0 mi SW 3.5 mph - N/A   Clear
1:15 AM 72.0 °F - 57.0 °F 59% 30.14 in 10.0 mi Calm Calm - N/A   Mostly Cloudy
1:35 AM 73.4 °F - 56.5 °F 55% 30.14 in 10.0 mi South 5.8 mph - N/A   Scattered Clouds
1:55 AM 72.5 °F - 56.7 °F 57% 30.15 in 10.0 mi South 5.8 mph - N/A   Mostly Cloudy
2:15 AM 72.1 °F - 56.3 °F 57% 30.14 in 10.0 mi South 5.8 mph - N/A   Scattered Clouds
2:35 AM 72.0 °F - 56.3 °F 58% 30.14 in 10.0 mi South 5.8 mph - N/A   Mostly Cloudy
2:55 AM 72.3 °F - 55.6 °F 56% 30.14 in 10.0 mi SSE 6.9 mph - N/A   Overcast
3:15 AM 71.8 °F - 55.4 °F 56% 30.14 in 10.0 mi SSE 6.9 mph - N/A   Mostly Cloudy
3:35 AM 71.2 °F - 55.4 °F 57% 30.14 in 10.0 mi SE 4.6 mph - N/A   Clear
3:55 AM 70.7 °F - 55.6 °F 59% 30.14 in 10.0 mi SSE 4.6 mph - N/A   Clear
4:15 AM 70.2 °F - 55.8 °F 60% 30.14 in 10.0 mi Calm Calm - N/A   Clear
4:35 AM 69.6 °F - 56.1 °F 62% 30.14 in 10.0 mi Calm Calm - N/A   Clear
4:55 AM 68.5 °F - 56.5 °F 65% 30.14 in 10.0 mi Calm Calm - N/A   Clear
5:15 AM 69.4 °F - 56.3 °F 63% 30.15 in 10.0 mi Calm Calm - N/A   Clear
5:35 AM 68.4 °F - 56.5 °F 66% 30.15 in 10.0 mi West 3.5 mph - N/A   Scattered Clouds
5:55 AM 67.6 °F - 56.5 °F 67% 30.16 in 10.0 mi WNW 3.5 mph - N/A   Scattered Clouds
6:15 AM 67.8 °F - 56.5 °F 67% 30.16 in 10.0 mi Calm Calm - N/A   Clear
6:35 AM 67.3 °F - 56.5 °F 68% 30.17 in 10.0 mi West 3.5 mph - N/A   Clear
6:55 AM 68.0 °F - 56.7 °F 67% 30.17 in 10.0 mi Calm Calm - N/A   Clear
7:15 AM 69.4 °F - 56.8 °F 64% 30.18 in 10.0 mi Calm Calm - N/A   Scattered Clouds
7:55 AM 73.0 °F - 57.2 °F 57% 30.19 in 10.0 mi SSW 3.5 mph - N/A   Scattered Clouds
8:55 AM 76.1 °F - 57.7 °F 53% 30.20 in 10.0 mi SSE 5.8 mph - N/A   Scattered Clouds
9:15 AM 76.5 °F - 57.2 °F 51% 30.20 in 10.0 mi SSE 9.2 mph - N/A   Scattered Clouds
9:35 AM 76.8 °F - 58.1 °F 52% 30.21 in 10.0 mi SSE 13.8 mph 18.4 mph N/A   Scattered Clouds
9:55 AM 77.9 °F - 58.3 °F 51% 30.22 in 10.0 mi South 9.2 mph - N/A   Scattered Clouds
10:15 AM 78.4 °F - 59.0 °F 51% 30.22 in 10.0 mi SSE 11.5 mph - N/A   Scattered Clouds
10:35 AM 76.3 °F - 59.9 °F 57% 30.22 in 10.0 mi South 10.4 mph - N/A   Scattered Clouds
10:55 AM 76.8 °F - 61.9 °F 60% 30.23 in 10.0 mi South 10.4 mph - N/A   Mostly Cloudy
11:15 AM 78.6 °F - 62.1 °F 57% 30.23 in 10.0 mi South 10.4 mph - N/A   Mostly Cloudy
11:35 AM 81.0 °F 81.7 °F 60.8 °F 50% 30.22 in 10.0 mi SSW 10.4 mph 16.1 mph N/A   Scattered Clouds
11:50 AM 83.3 °F 83.2 °F 59.4 °F 44% 30.20 in 10.0 mi South 9.2 mph - N/A   Clear
12:15 PM 82.4 °F 82.2 °F 57.7 °F 43% 30.19 in 10.0 mi West 21.9 mph 26.5 mph N/A   Scattered Clouds
12:35 PM 80.8 °F 81.2 °F 59.0 °F 47% 30.20 in 10.0 mi West 15.0 mph 21.9 mph N/A   Scattered Clouds
12:55 PM 80.8 °F 81.1 °F 58.1 °F 46% 30.19 in 10.0 mi West 13.8 mph 20.7 mph N/A   Clear
1:15 PM 81.3 °F 81.4 °F 57.9 °F 45% 30.19 in 10.0 mi West 10.4 mph 18.4 mph N/A   Clear
1:35 PM 82.2 °F 82.0 °F 57.4 °F 43% 30.18 in 10.0 mi West 9.2 mph - N/A   Clear
1:55 PM 83.5 °F 82.9 °F 57.4 °F 41% 30.17 in 10.0 mi WNW 4.6 mph - N/A   Clear
2:15 PM 82.9 °F 82.4 °F 57.2 °F 41% 30.16 in 10.0 mi Calm Calm - N/A   Clear
2:35 PM 84.0 °F 83.2 °F 56.3 °F 39% 30.15 in 10.0 mi NNE 3.5 mph - N/A   Clear
2:55 PM 82.6 °F 82.0 °F 56.3 °F 40% 30.15 in 10.0 mi WSW 3.5 mph - N/A   Clear
3:15 PM 83.3 °F 82.6 °F 56.3 °F 40% 30.14 in 10.0 mi NW 4.6 mph - N/A   Clear
3:35 PM 84.6 °F 83.4 °F 55.4 °F 37% 30.13 in 10.0 mi Calm Calm - N/A   Clear
3:55 PM 85.6 °F 84.0 °F 54.1 °F 34% 30.12 in 10.0 mi ENE 6.9 mph - N/A   Clear
4:15 PM 84.9 °F - 52.9 °F 33% 30.11 in 10.0 mi Calm Calm - N/A   Clear
4:35 PM 87.3 °F - 51.8 °F 29% 30.10 in 10.0 mi Calm Calm - N/A   Clear
4:55 PM 85.6 °F - 51.3 °F 30% 30.10 in 10.0 mi Calm Calm - N/A   Clear
5:15 PM 86.9 °F - 51.3 °F 29% 30.10 in 10.0 mi South 5.8 mph - N/A   Mostly Cloudy
5:35 PM 86.9 °F - 50.5 °F 28% 30.10 in 10.0 mi SW 5.8 mph - N/A   Scattered Clouds
5:55 PM 86.5 °F - 50.2 °F 28% 30.10 in 10.0 mi SSW 8.1 mph - N/A   Clear
6:15 PM 84.7 °F - 51.1 °F 31% 30.11 in 10.0 mi South 3.5 mph - N/A   Clear
6:35 PM 84.6 °F - 51.1 °F 31% 30.11 in 10.0 mi South 3.5 mph - N/A Thunderstorm Clear
6:55 PM 84.2 °F - 51.1 °F 32% 30.11 in 10.0 mi Calm Calm - N/A   Clear
7:15 PM 84.2 °F - 51.3 °F 32% 30.12 in 10.0 mi SSE 4.6 mph - N/A   Clear
7:35 PM 83.5 °F - 51.8 °F 33% 30.12 in 10.0 mi East 4.6 mph - N/A   Scattered Clouds
7:55 PM 82.4 °F 81.8 °F 55.6 °F 40% 30.14 in 10.0 mi SE 5.8 mph - N/A Thunderstorm Mostly Cloudy
8:15 PM 81.1 °F 81.2 °F 57.2 °F 44% 30.14 in 10.0 mi East 6.9 mph - N/A   Overcast
8:35 PM 80.2 °F 80.5 °F 57.0 °F 45% 30.15 in 10.0 mi Calm Calm - N/A   Mostly Cloudy
8:55 PM 76.3 °F - 59.4 °F 56% 30.17 in 10.0 mi NE 10.4 mph 20.7 mph N/A   Mostly Cloudy
9:15 PM 73.4 °F - 59.9 °F 63% 30.18 in 10.0 mi North 6.9 mph - N/A Thunderstorm Mostly Cloudy
9:35 PM 72.5 °F - 58.6 °F 62% 30.18 in 10.0 mi NNE 5.8 mph - N/A   Mostly Cloudy
9:55 PM 73.0 °F - 57.6 °F 58% 30.19 in 10.0 mi NNE 4.6 mph - N/A   Scattered Clouds
10:15 PM 73.4 °F - 58.3 °F 59% 30.19 in 10.0 mi Calm Calm - N/A   Scattered Clouds
10:35 PM 73.2 °F - 58.3 °F 59% 30.20 in 10.0 mi Calm Calm - N/A   Mostly Cloudy
10:55 PM 73.8 °F - 58.1 °F 58% 30.21 in 10.0 mi Calm Calm - N/A   Overcast
11:15 PM 74.3 °F - 58.6 °F 58% 30.22 in 10.0 mi Calm Calm - N/A Thunderstorm Overcast
11:35 PM 73.2 °F - 60.4 °F 64% 30.22 in 10.0 mi Calm Calm - N/A   Overcast
11:55 PM 73.2 °F - 59.9 °F 63% 30.22 in 10.0 mi Calm Calm - N/A   Scattered Clouds